Regional Weather Roundup
Issued by NWS

Home | Current Version | Previous Version | Text Only | Print | Product List | Glossary On
Versions: 1 2 3 4 5 6 7 8 9 10 11 12 13 14 15 16 17 18 19 20 21 22 23 24 25 26 27 28 29 30 31 32 33 34 35 36 37 38 39 40 41 42 43 44 45 46 47 48 49 50
000
ASUS44 KFWD 271715
RWRTX
NORTH TEXAS HOURLY WEATHER ROUNDUP
NATIONAL WEATHER SERVICE FORT WORTH TX
1100 AM CST THU NOV 27 2014

NOTE: "FAIR" INDICATES FEW OR NO CLOUDS BELOW 12,000 FEET WITH NO
SIGNIFICANT WEATHER AND/OR OBSTRUCTIONS TO VISIBILITY.

TXZ118-119-271800-
DALLAS/FORT WORTH METROPLEX

CITY           SKY/WX    TMP DP  RH WIND       PRES   REMARKS
DFW AIRPORT    MOSUNNY   48  24  39 NE6       30.54F
DALLAS LOVE    MOSUNNY   51  21  30 E6        30.55F
FTW MEACHAM    SUNNY     50  26  39 E5        30.54F
DAL-EXECUTIVE  SUNNY     53  20  27 N6        30.53F
FTW-ALLIANCE   SUNNY     48  25  40 VRB5      30.54F
FTW-SPINKS     SUNNY     52  21  30 NE5       30.56S
ARLINGTON      SUNNY     50  21  32 N6        30.54F
ADDISON        SUNNY     50  19  29 E5        30.55F
MESQUITE       SUNNY     50  21  32 N7        30.55F
LANCASTER      SUNNY     49  20  31 E5        30.55F
$$

TXZ091>094-102>105-117-120-121-131>134-271800-
NORTH CENTRAL TEXAS

CITY           SKY/WX    TMP DP  RH WIND       PRES   REMARKS
SHRMAN/DENISON SUNNY     48  27  44 NE3       30.56F
BOWIE          SUNNY     49  20  31 E3        30.53F
BRIDGEPORT     SUNNY     49  30  48 CALM      30.57S
DECATUR        SUNNY     47  22  36 E8        30.53F
DENTON         SUNNY     48  24  39 NE5       30.55F
MCKINNEY       SUNNY     49  24  37 E8        30.55F
GREENVILLE     SUNNY     52  21  30 NE6       30.55F
ROCKWALL       SUNNY     50  25  37 E5        30.54S
TERRELL        SUNNY     54  23  30 NE9       30.54F
WAXAHACHIE     SUNNY     50  27  41 NE6       30.55F
CLEBURNE       SUNNY     52  21  30 E5        30.54F
GRANBURY       SUNNY     51  25  36 E5        30.55F
$$

TXZ083>090-098>101-113>116-127>130-139>142-154-155-271800-
WESTERN NORTH TEXAS

CITY           SKY/WX    TMP DP  RH WIND       PRES   REMARKS
WICHITA FALLS  SUNNY     44  27  51 E6        30.55S
WF-KICKAPOO    SUNNY     46  24  40 CALM      30.56F
VERNON         SUNNY     45  25  45 CALM      30.55S
ABILENE        SUNNY     50  25  37 SE7       30.53S
ABILENE-DYESS  SUNNY     49  26  39 SE8       30.52F
BRECKENRIDGE   SUNNY     51  24  35 S7        30.53F
GRAHAM         SUNNY     49  26  39 S3        30.53S
MINERAL WELLS  SUNNY     49  25  39 VRB5      30.53S
STEPHENVILLE   SUNNY     51  24  35 E7        30.55F
COMANCHE       SUNNY     49  30  48 SE5       30.54S
BROWNWOOD      SUNNY     52  25  35 E9        30.53F
COLEMAN        SUNNY     50  32  50 SE6       30.53F
BRADY          SUNNY     52  25  35 E8        30.51F
$$

TXZ143>147-156>162-174-175-271800-
CENTRAL TEXAS

CITY           SKY/WX    TMP DP  RH WIND       PRES   REMARKS
WACO           SUNNY     51  26  37 NE9       30.55S
WACO-MCGREGOR  SUNNY     52  28  40 NE8       30.56F
HILLSBORO      SUNNY     52  24  33 NE8       30.53F HAZE
CORSICANA      SUNNY     52  24  33 E10       30.54F
MEXIA          SUNNY     53  26  36 NE6       30.52F
HEARNE         SUNNY     56  26  31 NE7       30.54F
CAMERON        SUNNY     56  28  33 NE6       30.54S
TEMPLE         SUNNY     54  25  32 NE6       30.53F
KILLEEN        SUNNY     51  25  36 E8        30.53F
KILLEEN-SKYLRK SUNNY     52  25  35 NE7       30.52S
FORT HOOD      SUNNY     57  22  25 NE6       30.53F
GATESVILLE     SUNNY     52  27  37 CALM      30.56F
HAMILTON       SUNNY     52  26  37 E10G16    30.54F
LAMPASAS       SUNNY     51  30  45 NE6       30.52F
$$

TXZ095>097-106>112-122>126-135>138-148>153-164>167-271800-
EAST TEXAS

CITY           SKY/WX    TMP DP  RH WIND       PRES   REMARKS
PARIS          SUNNY     48  23  37 N8        30.55F
SULPHUR SPRNGS SUNNY     51  22  31 N8        30.57S
MOUNT PLEASANT SUNNY     51  22  31 N7        30.56F
MINEOLA        SUNNY     52  16  24 NE6       30.55S
TYLER          SUNNY     54  24  31 VRB3      30.53S
LONGVIEW       SUNNY     55  24  30 N6        30.52S
MARSHALL       SUNNY     53  26  34 N6        30.55S
ATHENS         SUNNY     52  23  32 NE6       30.52F
PALESTINE      SUNNY     55  22  28 NE9       30.53F
JACKSONVILLE   SUNNY     53  26  36 NE7       30.53F
HENDERSON      SUNNY     53  26  34 N5        30.54S
NACOGDOCHES    SUNNY     55  25  30 E7        30.52F
LUFKIN         SUNNY     60  28  29 VRB5      30.51F
$$

SUPPLEMENTAL OBSERVATIONS (CENTRAL)

CITY           SKY/WX    TMP DP  RH WIND       PRES   REMARKS
LAKE TEXOMA      N/A     46  25  42 NE2         N/A
CADDO GRASSLND   N/A     50  23  34 NE5         N/A
PAT MAYSE LAKE   N/A     46  25  42 N7          N/A
GREENVILLE       N/A     52  23  32 NE8         N/A
CEDAR HILL       N/A     55  23  28 E5          N/A
ATHENS           N/A     55  23  28 NE5         N/A
PALESTINE        N/A     55  27  33 NE8         N/A
LAKE LIMESTONE   N/A     57  23  26 E9          N/A
MCGREGOR         N/A     54  28  37 NE6         N/A
TEMPLE           N/A     54  27  35 NE9         N/A
$$

SUPPLEMENTAL OBSERVATIONS (WEST)

CITY           SKY/WX    TMP DP  RH WIND       PRES   REMARKS
MILLERS CREEK    N/A     46  36  66 S8          N/A
POSSUM KINGDOM   N/A     50  25  37 E5          N/A
LBJ GRASSLAND    N/A     50  25  37 E7          N/A
GRANBURY         N/A     52  25  35 E5          N/A
COMANCHE         N/A     50  32  50 SE8         N/A
HAMBY            N/A     52  25  35 SE5         N/A
IVIE RESERVOIR   N/A     52  27  37 SE10        N/A
COLORADO BEND    N/A     54  25  32 SE8         N/A
$$

SUPPLEMENTAL OBSERVATIONS (EAST)

CITY           SKY/WX    TMP DP  RH WIND       PRES   REMARKS
CLARKSVILLE      N/A     48  27  43 NE5         N/A
TEXARKANA        N/A     48  27  43 N5          N/A
LINDEN           N/A     52  27  37 N2          N/A
CADDO LAKE       N/A     54  28  37 NE6         N/A
GILMER           N/A     54  25  32 NE5G13      N/A
HENDERSON        N/A     55  25  30 N3          N/A
LUFKIN           N/A     57  27  30 MISG        N/A
N SABINE NF      N/A     54  32  43 MISG        N/A
S SABINE NF      N/A     55  32  41 N5          N/A
$$

SUPPLEMENTAL OBSERVATIONS ARE A COLLECTION OF AUTOMATED INSTRUMENTS
THAT ARE MAINTAINED BY A VARIETY OF FEDERAL AND STATE AGENCIES.
CERTAIN ELEMENTS...SUCH AS HUMIDITY VALUES AND SUSTAINED WIND
SPEEDS...MAY BE APPROXIMATED.



USA.gov is the U.S. government's official web portal to all federal, state and local government web resources and services.